Owosso, MI

4:19 AM EST on January 19, 2017 (GMT -0500)
Owosso

Weather History for KRNP - December, 2011

Change the Weather History Date:

Saturday, December 10, 2011

  Actual Average (KFNT) Record (KFNT)
Temperature  
Mean Temperature 21 °F -  
Max Temperature 30 °F 35 °F 63 °F (1971)
Min Temperature 12 °F 22 °F -5 °F (1977)
Degree Days  
Heating Degree Days 44    
Moisture  
Dew Point 12 °F    
Average Humidity 74    
Maximum Humidity 100    
Minimum Humidity 51    
Precipitation  
Precipitation 0.00 in - - ()
Sea Level Pressure  
Sea Level Pressure 30.38 in    
Wind  
Wind Speed 3 mph (WSW)    
Max Wind Speed 15 mph    
Max Gust Speed 22 mph    
Visibility 10 miles    
Events      
Averages and records for this station are not official NWS values.
T = Trace of Precipitation, MM = Missing Value Source: NWS Daily Summary

Daily Weather History Graph

Daily Weather History Graph

Search for Another Location

Airport or City:

Trip Planner

Search our weather history database for the weather conditions in past years. The results will help you decide how hot, cold, wet, or windy it might be!

Date:

Astronomy

Dec. 10, 2011 Rise Set
Actual Time 7:56 AM EST 5:01 PM EST
Civil Twilight 7:24 AM EST 5:34 PM EST
Nautical Twilight 6:48 AM EST 6:09 PM EST
Astronomical Twilight 6:14 AM EST 6:44 PM EST
Moon 5:14 PM EST (12/10) 7:56 AM EST (12/10)
Length of Visible Light 10h 09m
Length of Day
9h 05m
Full, 100% of the Moon is Illuminated
Dec 10
Full
Dec 17
Last Quarter
Dec 24
New
Jan 1
First Quarter
Jan 9
Full

Hourly Weather History & Observations

Time (EST) Temp. Windchill Dew Point Humidity Pressure Visibility Wind Dir Wind Speed Gust Speed Precip Events Conditions
12:14 AM 14.0 °F - 12.2 °F 93% 30.32 in 10.0 mi Calm Calm - N/A   Clear
12:35 AM 14.0 °F - 12.2 °F 93% 30.32 in 10.0 mi Calm Calm - N/A   Clear
12:55 AM 14.0 °F - 12.2 °F 93% 30.32 in 10.0 mi Calm Calm - N/A   Clear
1:14 AM 14.0 °F - 14.0 °F 100% 30.32 in 10.0 mi Calm Calm - N/A   Clear
1:35 AM 15.8 °F - 14.0 °F 93% 30.33 in 10.0 mi Calm Calm - N/A   Clear
1:54 AM 14.0 °F - 12.2 °F 93% 30.33 in 10.0 mi Calm Calm - N/A   Clear
2:15 AM 14.0 °F - 12.2 °F 93% 30.33 in 10.0 mi Calm Calm - N/A   Clear
2:35 AM 14.0 °F - 12.2 °F 93% 30.34 in 10.0 mi Calm Calm - N/A   Clear
2:54 AM 14.0 °F - 12.2 °F 93% 30.34 in 10.0 mi Calm Calm - N/A   Clear
3:15 AM 14.0 °F - 12.2 °F 93% 30.34 in 10.0 mi Calm Calm - N/A   Clear
3:34 AM 14.0 °F - 10.4 °F 86% 30.35 in 10.0 mi Calm Calm - N/A   Clear
3:55 AM 15.8 °F 7.2 °F 12.2 °F 86% 30.35 in 10.0 mi WSW 5.8 mph - N/A   Clear
4:15 AM 15.8 °F 10.2 °F 12.2 °F 86% 30.35 in 10.0 mi WSW 3.5 mph - N/A   Clear
4:34 AM 15.8 °F 8.6 °F 12.2 °F 86% 30.35 in 10.0 mi WSW 4.6 mph - N/A   Clear
4:55 AM 15.8 °F 10.2 °F 12.2 °F 86% 30.35 in 10.0 mi SW 3.5 mph - N/A   Clear
5:15 AM 15.8 °F - 12.2 °F 86% 30.36 in 10.0 mi Calm Calm - N/A   Clear
5:34 AM 14.0 °F - 10.4 °F 86% 30.36 in 10.0 mi Calm Calm - N/A   Clear
5:55 AM 14.0 °F - 10.4 °F 86% 30.36 in 10.0 mi Calm Calm - N/A   Clear
6:15 AM 14.0 °F - 10.4 °F 86% 30.37 in 10.0 mi Calm Calm - N/A   Clear
6:34 AM 12.2 °F - 8.6 °F 85% 30.37 in 10.0 mi Calm Calm - N/A   Clear
6:55 AM 12.2 °F - 10.4 °F 92% 30.38 in 10.0 mi Calm Calm - N/A   Clear
7:15 AM 14.0 °F - 10.4 °F 86% 30.39 in 10.0 mi Calm Calm - N/A   Clear
7:34 AM 12.2 °F - 10.4 °F 92% 30.39 in 10.0 mi Calm Calm - N/A   Clear
7:55 AM 12.2 °F - 10.4 °F 92% 30.39 in 10.0 mi Calm Calm - N/A   Clear
8:15 AM 12.2 °F - 10.4 °F 92% 30.40 in 10.0 mi Calm Calm - N/A   Clear
8:35 AM 14.0 °F - 10.4 °F 86% 30.40 in 10.0 mi Calm Calm - N/A   Clear
8:55 AM 17.6 °F - 12.2 °F 79% 30.41 in 10.0 mi Calm Calm - N/A   Clear
9:15 AM 19.4 °F 12.8 °F 12.2 °F 74% 30.42 in 10.0 mi WSW 4.6 mph - N/A   Clear
9:35 AM 19.4 °F 12.8 °F 14.0 °F 80% 30.43 in 10.0 mi WSW 4.6 mph - N/A   Clear
9:55 AM 21.2 °F 12.6 °F 14.0 °F 74% 30.43 in 10.0 mi West 6.9 mph - N/A   Clear
10:14 AM 23.0 °F 15.8 °F 14.0 °F 68% 30.44 in 10.0 mi WSW 5.8 mph - N/A   Clear
10:35 AM 23.0 °F 13.9 °F 14.0 °F 68% 30.44 in 10.0 mi WSW 8.1 mph - N/A   Clear
10:55 AM 23.0 °F 12.4 °F 14.0 °F 68% 30.44 in 10.0 mi WSW 10.4 mph - N/A   Clear
11:14 AM 24.8 °F 15.3 °F 14.0 °F 64% 30.44 in 10.0 mi SW 9.2 mph - N/A   Clear
11:35 AM 26.6 °F 15.7 °F 14.0 °F 59% 30.44 in 10.0 mi WSW 12.7 mph 17.3 mph N/A   Scattered Clouds
11:55 AM 26.6 °F 16.8 °F 14.0 °F 59% 30.43 in 10.0 mi WSW 10.4 mph - N/A   Scattered Clouds
12:14 PM 26.6 °F 15.2 °F 14.0 °F 59% 30.42 in 10.0 mi West 13.8 mph 20.7 mph N/A   Scattered Clouds
12:35 PM 28.4 °F 18.0 °F 14.0 °F 55% 30.41 in 10.0 mi WSW 12.7 mph 17.3 mph N/A   Scattered Clouds
12:55 PM 28.4 °F 17.0 °F 14.0 °F 55% 30.40 in 10.0 mi WSW 15.0 mph 21.9 mph N/A   Mostly Cloudy
1:15 PM 26.6 °F 15.7 °F 14.0 °F 59% 30.40 in 10.0 mi WSW 12.7 mph 19.6 mph N/A   Mostly Cloudy
1:34 PM 26.6 °F 16.8 °F 14.0 °F 59% 30.40 in 10.0 mi West 10.4 mph 18.4 mph N/A   Scattered Clouds
1:55 PM 28.4 °F 17.0 °F 14.0 °F 55% 30.39 in 10.0 mi WSW 15.0 mph 19.6 mph N/A   Clear
2:15 PM 28.4 °F 18.0 °F 12.2 °F 51% 30.39 in 10.0 mi WSW 12.7 mph 21.9 mph N/A   Mostly Cloudy
2:34 PM 28.4 °F 19.7 °F 12.2 °F 51% 30.39 in 10.0 mi WSW 9.2 mph 21.9 mph N/A   Scattered Clouds
2:55 PM 28.4 °F 19.1 °F 12.2 °F 51% 30.39 in 10.0 mi WSW 10.4 mph - N/A   Scattered Clouds
3:15 PM 30.2 °F 21.3 °F 14.0 °F 51% 30.39 in 10.0 mi West 10.4 mph - N/A   Mostly Cloudy
3:34 PM 28.4 °F 18.0 °F 12.2 °F 51% 30.39 in 10.0 mi WSW 12.7 mph 18.4 mph N/A   Scattered Clouds
3:55 PM 28.4 °F 19.7 °F 12.2 °F 51% 30.39 in 10.0 mi WSW 9.2 mph - N/A   Clear
4:15 PM 28.4 °F 18.5 °F 14.0 °F 55% 30.39 in 10.0 mi West 11.5 mph - N/A   Clear
4:34 PM 28.4 °F 21.2 °F 14.0 °F 55% 30.39 in 10.0 mi SW 6.9 mph - N/A   Clear
4:55 PM 26.6 °F 19.1 °F 12.2 °F 55% 30.39 in 10.0 mi WSW 6.9 mph - N/A   Clear
5:15 PM 26.6 °F 21.2 °F 12.2 °F 55% 30.39 in 10.0 mi SW 4.6 mph - N/A   Clear
5:34 PM 26.6 °F 19.1 °F 12.2 °F 55% 30.40 in 10.0 mi SW 6.9 mph - N/A   Clear
5:55 PM 24.8 °F 19.1 °F 12.2 °F 59% 30.40 in 10.0 mi SSW 4.6 mph - N/A   Clear
6:15 PM 23.0 °F 17.0 °F 12.2 °F 63% 30.40 in 10.0 mi SSW 4.6 mph - N/A   Clear
6:35 PM 23.0 °F 17.0 °F 12.2 °F 63% 30.40 in 10.0 mi SSW 4.6 mph - N/A   Clear
6:55 PM 23.0 °F 17.0 °F 12.2 °F 63% 30.40 in 10.0 mi SSW 4.6 mph - N/A   Clear
7:15 PM 23.0 °F 17.0 °F 12.2 °F 63% 30.41 in 10.0 mi SSW 4.6 mph - N/A   Clear
7:35 PM 23.0 °F 14.7 °F 14.0 °F 68% 30.41 in 10.0 mi SW 6.9 mph - N/A   Clear
7:54 PM 23.0 °F 14.7 °F 14.0 °F 68% 30.42 in 10.0 mi SSW 6.9 mph - N/A   Clear
8:15 PM 23.0 °F 15.8 °F 14.0 °F 68% 30.42 in 10.0 mi SSW 5.8 mph - N/A   Clear
8:35 PM 21.2 °F 13.6 °F 12.2 °F 68% 30.41 in 10.0 mi SSW 5.8 mph - N/A   Clear
8:54 PM 23.0 °F 15.8 °F 12.2 °F 63% 30.42 in 10.0 mi SSW 5.8 mph - N/A   Mostly Cloudy
9:15 PM 23.0 °F 15.8 °F 12.2 °F 63% 30.43 in 10.0 mi SSW 5.8 mph - N/A   Overcast
9:35 PM 23.0 °F 13.1 °F 12.2 °F 63% 30.42 in 10.0 mi SSW 9.2 mph - N/A   Overcast
9:54 PM 23.0 °F 13.1 °F 10.4 °F 59% 30.42 in 10.0 mi SSW 9.2 mph - N/A   Overcast
10:15 PM 23.0 °F 13.9 °F 8.6 °F 54% 30.41 in 10.0 mi SSW 8.1 mph - N/A   Overcast
10:35 PM 23.0 °F 13.9 °F 6.8 °F 50% 30.41 in 10.0 mi SSW 8.1 mph - N/A   Overcast
10:54 PM 23.0 °F 13.1 °F 6.8 °F 50% 30.41 in 10.0 mi SSW 9.2 mph - N/A   Overcast
11:15 PM 23.0 °F 14.7 °F 6.8 °F 50% 30.41 in 10.0 mi SSW 6.9 mph - N/A   Overcast
11:34 PM 23.0 °F 14.7 °F 6.8 °F 50% 30.41 in 10.0 mi SSW 6.9 mph - N/A   Overcast
11:55 PM 23.0 °F 13.9 °F 6.8 °F 50% 30.41 in 10.0 mi SSW 8.1 mph - N/A   Overcast